{"data":{"norad_id":68326,"epoch":"2026-09-20T00:25:31.776096Z","epoch_age_seconds":90029,"freshness":"FRESH","line1":"1 68326U 26059F   26263.01772889  .00016154  00000+0  48816-3 0  9994","line2":"2 68326  53.1597 163.8212 0001088  79.3144 280.7981 15.34402074 27953","mean_motion":15.34402074,"eccentricity":0.0001088,"inclination_deg":53.1597,"raan_deg":163.8212,"arg_perigee_deg":79.3144,"mean_anomaly_deg":280.7981,"bstar":0.00048816,"rev_number":2795,"period_min":93.847631230457,"perigee_km":461.95279310152,"apogee_km":463.44135859643,"semimajor_km":6840.834075849,"source":"CELESTRAK","updated_at":"2026-09-20T09:00:43.883989Z"}}